Flag for Belarus Weather past 2 weeks in Minsk, Belarus

Now
81 °F

Partly sunny.


Feels Like: 80 °F
Forecast: 58 / 79 °F
Wind: 3 mph from Southwest

Location: Loshitsa / Minsk International 1

Current Time: Jun 2, 2015 at 4:39:48 PM

Latest Report: Jun 2, 2015 at 4:00 PM


Visibility: N/A

Pressure: 30.04 "Hg

Humidity: 39%

Dew point: 54 °F

Location of MinskLocation

Historic Weather in Minsk — Graph

°F

Minsk temperature yesterday

Maximum temperature yesterday: 73 °F (at 3:00 PM)
Minimum temperature yesterday: 55 °F (at 7:00 AM)
Average temperature yesterday: 68 °F

Past Weeks' High & Low Weather Summary

 TemperatureHumidityPressure
High79 °F (May 20, 2:00 PM)100% (May 22, 7:00 AM)30.18 "Hg (May 22, 7:00 AM)
Low41 °F (May 19, 7:00 AM)36% (Jun 1, 2:00 PM)29.62 "Hg (May 27, 8:00 AM)
Average62 °F65%29.94 "Hg
* Reported May 18 3:00 PM — Jun 2 3:30 PM, Minsk, Weather by CustomWeather, © 2015

Note: Actual official high and low records may vary slightly from our data, if they occured in-between our weather recording intervals... More about our weather records

Advertising

Minsk weather history for previous 24 hours

 ConditionsComfort  
Time TempWeatherWind HumidityBarometerVisibility
3:30 PM
Tue, Jun 2
79 °FPartly sunny.6 mph39%30.04 "HgN/A
3:00 PM79 °FPartly sunny.6 mph39%30.04 "HgN/A
2:30 PM79 °FPartly sunny.6 mph39%30.04 "HgN/A
2:00 PM79 °FPartly sunny.6 mph39%30.07 "HgN/A
1:30 PM79 °FPartly sunny.6 mph39%30.07 "HgN/A
12:30 PM77 °FBroken clouds.6 mph44%30.07 "HgN/A
12:00 PM77 °FBroken clouds.6 mph44%30.07 "HgN/A
11:30 AM75 °FSunny.6 mph50%30.07 "Hg10 mi
11:00 AM75 °FSunny.6 mph50%30.07 "Hg10 mi
10:30 AM70 °FSunny.3 mph53%30.07 "Hg10 mi
10:00 AM70 °FSunny.3 mph53%30.07 "Hg10 mi
9:30 AM66 °FSunny.1 mph60%30.07 "Hg10 mi
9:00 AM66 °FSunny.1 mph60%30.07 "Hg10 mi
8:30 AM63 °FSunny.1 mph64%30.07 "Hg10 mi
8:00 AM63 °FSunny.1 mph64%30.07 "Hg10 mi
7:30 AM59 °FSunny.1 mph68%30.07 "Hg10 mi
8:30 PM
Mon, Jun 1
72 °FSunny.6 mph38%30.09 "Hg10 mi
8:00 PM72 °FSunny.6 mph38%30.09 "Hg10 mi
7:30 PM72 °FSunny.6 mph44%30.09 "Hg10 mi
7:00 PM72 °FSunny.6 mph44%30.09 "Hg10 mi
6:30 PM73 °FSunny.3 mph38%30.09 "Hg10 mi
6:00 PM73 °FSunny.6 mph38%30.09 "Hg10 mi
5:30 PM73 °FSunny.8 mph36%30.09 "Hg10 mi
5:00 PM73 °FSunny.8 mph36%30.09 "Hg10 mi
4:30 PM73 °FSunny.8 mph36%30.12 "Hg10 mi
4:00 PM73 °FSunny.8 mph36%30.12 "Hg10 mi
Weather by CustomWeather, © 2015

See weather overviewHow to use our weather pages